Temperature
21 21 20 20 20 20 19 19 19 18 18 18 17 17 17 17 16 16 16 16 15 15 15 15 15 15 15 15 15 15 15 15 15 15 16 16 16 16 16 16 16 16 16
21 20 20 20 20 20 19 19 19 18 18 18 17 17 17 16 16 16 16 15 15 15 15 15 15 15 14 14 14 14 14 14 15 15 15 15 16 16 16 16 16 15 15
21 21 20 20 20 20 19 19 19 18 18 18 17 17 17 16 16 16 16 15 15 15 15 15 15 15 14 14 14 14 14 14 14 14 14 14 15 15 16 16 15 15 15
22 21 20 20 20 19 19 19 19 18 18 18 17 17 17 17 16 16 16 15 15 15 15 15 15 15 14 14 14 14 14 14 14 14 14 14 14 14 15 15 15 15 15
22 21 21 20 20 19 19 19 19 18 18 18 17 17 17 17 16 16 16 16 15 15 15 15 15 15 14 14 14 14 14 14 14 14 14 14 14 14 14 14 14 15 15
22 21 20 20 19 19 19 19 18 18 18 17 17 17 17 17 16 16 16 16 15 15 15 15 15 15 14 14 14 14 13 13 13 13 13 13 13 14 14 14 14 14 15
22 21 20 20 19 19 19 18 18 18 18 17 17 17 17 16 16 16 16 16 15 15 15 15 15 14 14 14 14 14 13 13 13 13 13 13 13 13 13 13 13 14 14
22 21 20 20 19 19 18 18 18 18 17 17 17 17 17 16 16 16 16 15 15 15 15 14 14 14 14 14 14 13 13 13 13 13 13 13 13 13 13 13 13 13 13
22 21 20 19 19 19 18 18 18 18 17 17 17 17 17 16 16 16 15 15 15 15 14 14 14 14 14 14 13 13 13 13 13 13 13 13 13 13 12 13 13 13 12
22 21 20 19 19 18 18 18 18 18 17 17 17 17 16 16 16 15 15 15 15 14 14 14 14 14 14 13 13 13 13 13 12 12 12 12 12 12 12 12 12 12 12
22 21 20 19 19 18 18 18 18 17 17 17 17 17 16 16 16 15 15 15 15 14 14 14 14 13 13 13 13 13 12 12 12 12 12 12 12 12 12 12 12 12 12
22 21 20 19 18 18 18 18 18 17 17 17 17 16 16 16 15 15 15 15 14 14 14 14 13 13 13 13 12 12 12 12 12 12 12 12 12 12 12 12 12 12 12
21 20 19 19 18 18 18 17 17 17 17 17 16 16 16 15 15 15 15 14 14 14 14 13 13 13 12 12 12 12 12 12 12 12 12 11 11 11 11 11 11 11 11
21 20 19 19 18 18 17 17 17 17 17 17 16 16 16 15 15 15 14 14 14 13 13 13 13 13 12 12 12 12 12 12 11 11 11 11 11 11 11 11 11 11 11
21 20 19 18 18 18 17 17 17 17 17 16 16 16 15 15 15 14 14 14 13 13 13 13 13 12 12 12 12 12 12 11 11 11 11 11 11 11 11 11 11 11 11
21 20 19 19 18 18 17 17 17 17 16 16 16 16 15 15 15 14 14 13 13 13 13 12 12 12 12 12 12 12 11 11 11 11 11 11 11 11 11 11 10 10 10
21 20 20 19 18 18 17 17 17 16 16 16 16 15 15 15 15 14 14 13 13 13 12 12 12 12 12 12 11 11 11 11 11 11 10 10 10 10 10 10 10 10 10
21 21 20 19 19 18 18 17 17 16 16 16 15 15 15 15 14 14 14 13 13 12 12 12 12 12 11 11 11 11 11 11 11 10 10 10 10 10 10 10 10 10 10
21 21 20 20 19 19 18 17 17 16 16 16 15 15 15 15 14 14 14 13 13 12 12 12 12 11 11 11 11 11 11 10 10 10 10 10 10 10 10 10 10 10 10
21 20 20 20 19 19 18 17 17 16 16 16 15 15 15 15 14 14 13 13 12 12 12 12 11 11 11 11 11 10 10 10 10 10 10 10 10 10 9 9 9 9 9
20 20 20 19 19 18 18 17 17 16 16 16 15 15 14 14 14 13 13 13 12 12 12 11 11 11 11 11 10 10 10 10 10 9 9 9 9 9 9 9 9 9 9
19 19 19 19 18 18 17 17 17 16 16 15 15 14 14 14 13 13 13 12 12 12 11 11 11 11 10 10 10 10 10 9 9 9 9 9 9 9 9 9 9 8 8
19 18 18 18 18 17 17 17 16 16 15 15 15 14 14 13 13 13 12 12 12 11 11 11 10 10 10 10 10 10 9 9 9 9 9 8 8 8 8 8 8 8 8
18 18 17 17 17 17 16 16 16 16 15 15 14 14 13 13 12 12 12 12 12 11 11 10 10 10 10 10 9 9 9 9 9 8 8 8 8 8 8 8 8 8 8
17 17 17 16 16 16 16 15 15 15 15 14 14 13 13 12 12 12 12 12 12 11 11 11 10 10 10 10 9 9 9 9 9 8 8 8 8 7 7 7 7 7 7
16 16 16 15 15 15 15 15 15 14 14 14 13 13 13 12 12 12 12 11 11 11 11 11 10 10 10 10 9 9 9 9 8 8 8 8 7 7 7 7 7 7 7
Wind_Speed
10 8 7 5 5 6 7 7 6 5 4 2 2 3 3 2 3 4 7 7 9 9 7 5 4 4 4 5 6 5 6 5 5 4 4 3 2 3 2 2 2 3 5
11 9 7 6 5 6 6 6 6 5 5 3 2 2 2 2 3 3 6 8 8 9 8 5 4 3 3 5 5 5 4 5 5 4 3 3 4 5 3 2 3 3 3
12 11 9 8 6 5 5 6 6 6 5 4 2 2 2 1 3 3 3 4 6 6 7 6 5 4 3 4 4 5 5 4 5 4 3 3 3 4 4 4 4 3 3
10 10 9 9 7 6 5 6 6 6 5 5 3 2 3 3 3 2 2 2 6 6 7 6 6 4 4 4 5 5 4 4 4 4 3 2 1 2 3 4 4 4 3
10 10 9 9 8 7 5 5 6 6 6 5 4 3 3 3 3 3 3 3 3 5 6 7 5 4 3 4 5 5 5 4 4 3 4 4 3 3 2 3 5 4 3
10 10 10 9 8 8 6 5 7 6 5 4 4 4 4 3 3 3 3 2 2 2 4 5 5 4 4 4 4 4 4 4 4 4 3 3 3 4 3 3 4 4 4
11 11 11 10 9 9 7 6 7 6 5 3 4 5 4 2 2 2 2 2 2 2 3 4 3 3 4 5 4 4 4 4 4 4 3 3 3 3 2 3 3 4 4
12 12 12 10 9 9 8 7 7 6 5 3 3 4 4 2 2 2 2 2 2 2 2 2 3 4 5 5 4 3 4 4 4 5 4 3 3 3 2 2 2 4 4
13 12 12 11 10 10 8 8 8 7 6 4 3 3 4 3 3 2 3 2 2 2 3 2 2 3 3 4 4 3 4 4 4 4 5 4 3 3 3 2 1 1 3
12 11 11 11 10 9 8 8 8 7 6 5 3 4 3 3 3 2 3 3 3 2 2 3 3 3 3 3 3 3 4 4 3 2 3 3 3 4 4 3 2 1 1
11 11 10 10 10 9 9 8 7 7 6 5 4 5 3 3 3 2 2 1 1 1 2 2 3 3 3 3 3 3 4 4 5 4 3 3 4 3 4 3 3 2 2
11 11 11 11 10 10 9 9 8 7 6 5 5 4 4 3 2 2 1 1 2 2 3 3 3 4 4 4 4 4 4 3 4 5 5 4 4 4 3 3 4 3 3
11 11 11 10 10 10 9 9 8 8 7 6 5 5 4 4 3 2 2 2 2 2 3 3 3 4 4 4 4 5 5 4 4 4 4 4 5 5 4 3 4 4 4
11 11 10 10 10 10 9 8 8 8 8 7 5 4 4 4 3 3 2 1 2 3 3 3 3 3 3 4 5 5 6 5 4 4 3 3 3 3 4 4 4 4 5
11 12 11 10 10 10 9 9 8 9 8 7 6 4 4 4 4 3 1 1 1 2 3 3 3 4 3 5 6 7 7 6 5 4 3 2 2 2 3 3 3 4 4
11 12 12 11 11 11 11 10 9 9 8 8 7 5 4 4 3 3 2 1 1 1 2 2 3 3 3 5 7 7 7 6 5 4 4 3 1 3 5 5 5 5 5
9 11 11 11 11 11 11 10 10 9 9 8 7 6 6 5 4 3 3 2 1 0 1 1 2 2 2 4 7 9 7 6 5 5 4 5 4 4 4 6 7 7 9
6 8 10 10 10 10 10 9 9 9 9 8 8 7 7 6 5 4 3 3 2 1 1 1 1 0 1 3 5 8 6 6 5 4 3 3 3 5 6 6 6 5 6
5 6 7 9 10 10 10 10 10 9 9 8 8 8 8 7 6 5 4 3 2 2 2 2 2 2 1 2 4 6 5 5 5 4 3 3 3 6 8 6 6 6 6
3 4 5 7 8 8 9 9 9 10 9 9 8 8 8 7 7 6 5 4 3 3 3 3 3 3 2 3 3 4 3 5 5 4 2 3 3 5 7 5 6 6 7
4 4 3 4 5 7 8 8 8 9 8 8 8 7 7 7 7 6 5 4 4 4 4 4 4 4 3 4 4 3 2 4 5 4 3 3 5 7 9 8 5 9 10
4 4 3 3 3 4 6 7 7 6 7 7 7 7 7 7 7 6 5 5 5 5 5 5 5 4 4 4 5 6 6 5 4 5 4 4 7 9 12 10 11 15 13
4 4 4 3 3 3 4 5 5 6 6 7 7 6 7 6 6 6 6 5 5 5 5 4 4 4 3 4 7 7 7 8 5 5 8 10 11 11 10 12 15 12 7
3 3 4 4 3 3 3 4 4 6 6 7 7 6 6 6 6 5 6 5 5 5 5 5 5 4 3 3 3 4 4 6 6 6 8 12 13 11 11 11 10 7 6
2 3 3 3 3 3 3 3 4 5 6 6 6 6 6 6 5 5 5 6 5 6 6 5 4 4 4 5 5 4 4 3 4 5 5 5 6 6 6 6 6 5 5
2 2 2 2 2 2 3 3 4 4 5 5 5 4 4 4 5 5 4 7 8 9 10 10 8 6 7 8 8 8 8 8 7 5 5 6 6 6 6 6 6 5 5
Wind_Direction
146 139 141 144 147 129 121 127 127 114 100 73 67 77 73 63 64 65 50 38 38 26 19 25 24 25 24 11 9 4 356 356 356 359 342 337 24 51 50 26 13 18 29
149 145 153 148 132 115 114 111 105 100 91 78 83 93 87 86 90 61 56 42 40 29 21 22 14 19 25 12 8 10 360 353 9 7 355 358 0 4 16 30 31 20 19
160 160 161 148 136 126 123 123 120 114 110 104 76 68 75 51 77 75 66 48 52 39 19 19 9 7 24 19 13 15 14 358 356 19 33 28 357 332 342 13 29 19 21
158 156 156 150 146 139 135 129 118 115 113 108 80 69 81 71 69 72 73 59 56 47 25 19 10 16 24 24 12 22 4 9 357 352 12 29 1 345 338 345 358 360 19
164 155 155 151 146 137 133 124 113 99 92 95 91 61 58 67 69 64 57 60 62 52 35 19 13 14 20 25 25 15 11 10 6 359 355 355 351 349 11 328 337 344 348
163 155 150 145 138 132 131 121 115 106 104 107 111 105 90 75 68 58 43 38 63 54 39 22 15 20 21 21 14 14 13 9 4 2 3 2 1 349 355 336 331 332 325
164 159 153 151 145 144 145 141 132 131 138 153 149 135 122 111 95 79 54 35 58 51 36 34 19 24 22 20 15 8 1 9 10 5 355 353 349 344 352 348 328 325 318
168 166 161 156 153 153 156 155 149 150 156 173 155 132 130 112 89 69 62 58 65 57 39 39 36 35 27 18 15 4 355 15 9 3 2 350 343 352 355 346 340 331 328
167 165 159 157 158 159 163 162 156 157 163 168 145 114 106 95 81 61 61 65 62 47 28 22 44 46 39 26 10 12 4 13 6 2 4 354 344 347 337 347 350 335 326
162 158 156 157 159 159 163 162 166 167 166 164 153 118 100 102 85 57 58 45 45 33 1 20 32 35 39 40 25 7 1 359 349 357 357 348 342 341 339 337 328 319 287
161 160 157 157 156 157 162 167 171 164 160 159 140 125 125 117 114 93 75 61 59 37 27 30 28 30 27 40 31 3 4 355 349 355 2 351 347 339 337 338 334 330 324
160 158 156 157 160 165 170 174 174 161 155 153 138 142 144 143 138 121 95 43 46 30 20 37 31 24 20 23 19 357 360 354 350 347 351 348 352 349 338 335 333 330 323
156 156 158 163 167 170 173 173 168 157 154 151 153 164 160 153 143 114 79 29 28 29 26 29 26 24 20 16 7 357 351 350 347 345 348 352 359 356 343 341 340 332 331
159 159 162 166 168 171 173 171 167 158 158 159 169 175 160 151 138 114 94 45 27 13 12 19 23 24 23 21 7 2 347 339 336 332 334 353 12 360 346 342 343 339 332
165 167 168 171 173 174 175 175 171 164 163 164 171 171 162 145 133 126 134 93 40 7 15 16 19 13 18 20 15 354 336 333 328 328 337 348 9 349 328 326 327 331 317
172 173 175 176 179 180 179 178 173 168 165 168 171 164 155 141 139 146 147 107 54 10 16 9 15 8 13 18 10 353 334 326 321 323 332 328 330 317 316 313 306 297 294
176 177 181 181 184 184 181 178 174 168 168 170 166 161 160 161 166 166 148 155 193 153 20 341 355 24 33 1 351 344 329 315 317 323 329 330 350 355 334 318 309 306 298
174 180 182 180 183 180 174 170 166 169 173 173 169 167 166 167 166 165 175 191 202 176 192 265 286 311 310 337 339 334 318 304 306 315 328 334 0 4 360 340 330 311 304
176 179 179 177 180 176 170 169 172 174 175 174 172 171 169 170 172 178 189 194 190 200 227 240 249 249 237 301 322 329 309 303 308 315 336 357 20 354 351 340 326 319 310
144 159 169 171 171 167 164 171 177 177 179 177 175 174 172 173 179 185 191 193 193 208 223 238 245 248 221 243 286 314 305 310 313 315 329 359 344 334 340 333 323 317 309
117 121 134 149 155 155 161 177 184 186 177 168 170 173 172 176 182 185 190 193 201 213 229 237 243 241 222 221 235 263 288 305 311 315 318 313 314 316 314 312 296 289 295
118 126 129 126 133 150 165 183 190 173 156 158 167 174 177 186 188 182 192 201 205 216 231 238 245 238 223 213 224 238 255 279 290 297 301 300 300 304 302 298 287 292 297
128 131 134 139 151 165 175 188 173 151 152 161 172 180 185 187 181 184 197 208 209 218 232 234 239 243 229 218 225 234 251 264 267 275 285 292 293 294 292 283 284 289 286
130 134 141 156 170 170 173 176 158 158 165 175 182 189 194 194 194 196 201 208 213 220 229 234 237 241 239 228 218 228 247 259 270 281 289 292 287 279 272 279 281 269 261
110 131 153 170 177 171 176 170 162 175 186 191 194 198 199 197 197 201 210 215 219 218 222 230 231 236 245 237 227 233 249 257 268 289 284 280 280 275 272 273 273 270 270
98 108 132 158 180 183 178 171 169 185 198 204 205 202 197 196 198 204 224 231 227 228 227 226 229 240 236 235 240 246 253 265 277 289 278 278 275 272 274 276 278 275 273
Height
1548 1550 1553 1555 1556 1558 1559 1559 1560 1561 1561 1562 1562 1562 1562 1562 1561 1560 1560 1559 1558 1557 1556 1555 1554 1552 1551 1549 1548 1547 1546 1545 1544 1543 1542 1542 1542 1542 1541 1541 1541 1541 1540
1547 1549 1552 1554 1556 1558 1559 1560 1561 1561 1561 1562 1562 1562 1562 1562 1561 1561 1560 1559 1558 1557 1557 1555 1554 1553 1552 1550 1549 1548 1547 1546 1545 1544 1543 1543 1544 1542 1542 1542 1541 1541 1541
1545 1548 1551 1553 1555 1557 1558 1559 1560 1561 1561 1561 1562 1562 1562 1562 1562 1561 1560 1560 1559 1558 1557 1556 1555 1554 1553 1551 1550 1549 1548 1547 1547 1546 1546 1545 1545 1544 1544 1543 1542 1541 1541
1543 1546 1549 1552 1554 1556 1558 1559 1560 1560 1561 1561 1562 1562 1562 1562 1562 1562 1561 1560 1559 1558 1557 1556 1555 1554 1553 1552 1551 1550 1549 1548 1547 1547 1547 1547 1546 1545 1544 1544 1543 1542 1541
1541 1544 1547 1550 1552 1554 1556 1558 1559 1560 1560 1561 1561 1562 1562 1562 1562 1562 1561 1561 1560 1559 1558 1557 1556 1555 1554 1553 1552 1550 1549 1549 1548 1547 1547 1547 1546 1546 1545 1543 1543 1542 1541
1538 1542 1545 1548 1551 1553 1555 1557 1558 1559 1559 1560 1561 1561 1562 1562 1562 1562 1561 1561 1560 1559 1558 1557 1556 1555 1554 1553 1552 1551 1550 1549 1548 1548 1547 1547 1546 1545 1545 1544 1542 1541 1541
1536 1540 1543 1546 1548 1551 1553 1555 1556 1558 1559 1560 1560 1561 1561 1561 1561 1561 1561 1561 1560 1559 1558 1557 1556 1555 1554 1553 1552 1551 1550 1549 1548 1548 1547 1546 1546 1545 1544 1543 1542 1541 1540
1533 1536 1540 1543 1546 1548 1551 1553 1555 1556 1557 1559 1560 1560 1561 1561 1561 1561 1561 1560 1560 1559 1558 1557 1556 1555 1554 1553 1552 1551 1550 1549 1548 1547 1547 1546 1545 1544 1544 1543 1542 1540 1539
1530 1534 1537 1540 1543 1546 1549 1551 1553 1555 1556 1557 1558 1559 1560 1560 1560 1560 1560 1560 1559 1559 1558 1557 1556 1555 1554 1552 1551 1550 1549 1549 1548 1547 1546 1545 1544 1543 1543 1542 1541 1541 1539
1528 1531 1535 1538 1541 1544 1547 1549 1551 1553 1555 1556 1557 1558 1558 1559 1559 1559 1559 1559 1558 1558 1557 1557 1556 1555 1553 1552 1551 1550 1549 1548 1547 1546 1545 1543 1542 1542 1541 1540 1540 1539 1539
1525 1529 1532 1536 1539 1542 1544 1547 1549 1551 1553 1554 1555 1556 1557 1557 1558 1558 1558 1558 1558 1557 1557 1556 1555 1554 1553 1552 1550 1549 1548 1547 1546 1545 1544 1542 1541 1540 1539 1539 1538 1537 1537
1523 1526 1530 1534 1537 1539 1542 1545 1547 1549 1551 1552 1554 1554 1555 1556 1556 1556 1557 1557 1557 1556 1556 1555 1554 1553 1552 1551 1550 1549 1548 1547 1545 1544 1543 1541 1540 1539 1538 1537 1536 1536 1535
1520 1524 1528 1531 1534 1537 1540 1542 1545 1547 1548 1550 1551 1553 1554 1554 1555 1555 1555 1555 1555 1555 1555 1554 1553 1552 1551 1550 1549 1548 1547 1546 1544 1543 1542 1540 1539 1537 1537 1536 1535 1534 1533
1518 1522 1525 1528 1531 1534 1537 1540 1542 1544 1546 1548 1549 1551 1551 1552 1553 1553 1553 1553 1553 1553 1553 1552 1551 1550 1549 1548 1547 1546 1545 1544 1543 1542 1540 1539 1537 1536 1535 1534 1533 1532 1531
1516 1519 1522 1525 1528 1531 1534 1537 1539 1541 1543 1545 1546 1548 1549 1550 1550 1551 1551 1551 1551 1551 1551 1550 1549 1548 1547 1546 1545 1544 1543 1542 1541 1540 1539 1538 1536 1535 1534 1532 1531 1530 1529
1513 1516 1519 1522 1525 1528 1531 1534 1536 1538 1540 1542 1544 1545 1546 1547 1548 1548 1548 1549 1549 1549 1548 1548 1547 1546 1545 1544 1543 1542 1541 1540 1539 1538 1537 1536 1534 1533 1532 1530 1529 1528 1527
1510 1513 1516 1519 1522 1525 1528 1530 1533 1535 1537 1539 1541 1542 1543 1544 1545 1546 1546 1546 1546 1546 1546 1546 1545 1544 1543 1542 1541 1540 1539 1538 1537 1536 1535 1534 1532 1531 1530 1528 1527 1526 1524
1508 1510 1513 1516 1520 1523 1525 1528 1530 1532 1534 1536 1537 1539 1540 1541 1542 1543 1543 1543 1544 1543 1543 1543 1542 1542 1541 1540 1539 1538 1537 1536 1535 1534 1532 1531 1530 1528 1527 1525 1523 1522 1521
1505 1508 1510 1513 1517 1519 1522 1525 1527 1529 1531 1532 1534 1535 1536 1538 1539 1539 1540 1540 1540 1541 1541 1540 1540 1539 1538 1537 1537 1535 1534 1533 1532 1531 1530 1528 1527 1525 1524 1522 1520 1518 1517
1503 1506 1508 1511 1514 1516 1519 1521 1523 1525 1526 1528 1530 1532 1533 1534 1535 1536 1537 1537 1537 1537 1537 1537 1537 1536 1535 1535 1534 1533 1531 1530 1529 1528 1527 1525 1524 1522 1520 1519 1516 1514 1513
1502 1504 1506 1509 1511 1513 1516 1518 1520 1522 1523 1525 1527 1528 1529 1530 1531 1532 1533 1534 1534 1534 1534 1534 1534 1533 1533 1532 1531 1530 1528 1527 1525 1524 1523 1521 1520 1518 1517 1515 1513 1511 1509
1501 1503 1505 1507 1509 1511 1513 1515 1517 1519 1521 1522 1523 1524 1526 1527 1528 1528 1529 1530 1530 1530 1530 1530 1530 1530 1529 1528 1527 1526 1525 1523 1522 1520 1519 1517 1516 1514 1512 1510 1508 1506 1505
1500 1501 1503 1505 1507 1508 1510 1512 1514 1516 1517 1518 1520 1521 1522 1523 1524 1524 1525 1526 1526 1526 1526 1526 1526 1525 1525 1524 1523 1522 1521 1519 1518 1516 1514 1512 1511 1509 1507 1505 1503 1502 1500
1499 1500 1502 1503 1505 1506 1508 1510 1511 1512 1514 1515 1516 1517 1518 1519 1520 1520 1521 1521 1521 1521 1522 1522 1521 1521 1520 1519 1518 1517 1516 1514 1512 1511 1509 1507 1505 1503 1501 1500 1498 1496 1495
1498 1499 1500 1501 1502 1504 1505 1506 1508 1509 1510 1511 1512 1513 1514 1515 1515 1516 1516 1516 1517 1517 1517 1517 1517 1516 1515 1514 1514 1513 1511 1509 1508 1505 1503 1501 1499 1497 1496 1494 1493 1491 1490
1497 1498 1499 1499 1500 1501 1502 1503 1504 1505 1506 1507 1508 1509 1510 1510 1511 1511 1511 1511 1512 1512 1512 1512 1512 1510 1510 1509 1508 1507 1506 1504 1503 1500 1498 1496 1494 1492 1491 1489 1487 1486 1484